Wind_Speed
19 19 19 19 19 19 20 20 21 20 20 19 20 20 20 21 21 20 20 20 19 20 20 21 21 21 22 22 23 22 22 22 22 22 22 22 22 22 23 22 22 22 22 22
20 20 20 21 20 20 21 21 21 21 20 20 21 21 21 22 22 22 22 22 22 22 23 23 23 24 24 24 24 24 24 24 24 24 24 24 24 25 25 25 24 24 24 24
20 20 21 21 20 20 21 21 21 21 21 21 21 21 22 22 23 23 23 24 24 25 24 24 25 25 25 26 26 26 26 26 26 26 26 27 27 27 27 27 26 27 26 26
20 20 21 20 20 20 21 21 21 21 21 22 22 22 22 23 23 24 24 25 25 26 26 26 26 26 26 27 27 27 28 28 27 27 28 29 29 28 29 29 29 29 29 29
21 21 21 20 20 21 21 20 21 22 22 23 23 24 24 25 25 25 25 26 26 26 27 27 26 26 27 28 28 28 29 29 29 29 29 29 29 29 29 30 30 30 30 31
21 22 21 20 21 21 22 20 20 21 22 23 24 25 26 26 26 26 27 28 27 27 28 28 28 28 28 29 30 30 30 30 30 30 30 30 30 30 30 30 30 30 31 31
22 22 22 21 21 22 22 21 21 22 23 24 25 25 26 26 27 27 28 29 29 29 29 29 30 29 29 29 30 30 31 30 31 30 30 30 31 31 31 31 31 30 31 32
23 23 23 22 22 22 22 22 23 23 24 24 25 25 26 27 27 27 28 29 29 30 30 29 29 29 30 30 30 30 31 31 32 32 31 31 32 32 32 32 32 31 31 31
24 24 24 23 23 23 23 23 24 25 25 25 26 26 27 28 28 28 28 29 29 30 30 30 29 30 30 31 31 31 31 32 32 32 32 32 32 33 33 34 34 34 33 32
25 24 24 24 24 24 25 25 26 26 26 26 27 27 28 29 29 29 29 29 29 30 30 30 31 31 31 31 32 32 33 32 32 32 32 32 33 34 34 34 35 34 34 34
25 25 25 24 25 25 26 26 27 27 27 27 27 28 29 29 30 30 30 31 31 31 30 30 31 32 32 32 33 33 33 33 33 33 33 33 33 33 34 34 35 35 35 35
27 26 26 26 26 27 27 27 27 27 27 28 28 28 29 29 30 30 31 31 31 31 31 30 30 31 32 33 34 34 34 34 34 34 34 34 34 33 33 34 35 36 36 36
27 27 27 27 27 28 28 28 28 28 28 28 28 29 29 29 29 30 31 31 31 31 31 31 31 31 32 33 34 34 34 35 35 35 34 34 35 34 34 34 34 35 36 36
27 27 28 27 28 28 29 29 29 29 29 29 29 30 30 30 31 31 32 31 31 31 31 31 31 32 32 33 34 35 35 35 35 35 35 35 34 34 34 34 35 35 35 36
27 27 27 27 28 29 29 30 30 30 30 30 30 30 30 31 31 31 31 31 32 31 31 31 31 32 32 33 34 34 35 35 35 35 35 35 35 35 34 35 35 35 36 36
26 27 27 28 28 29 30 30 31 30 30 30 30 31 31 31 31 31 31 31 32 31 32 32 32 32 32 33 33 34 34 34 34 34 35 35 35 35 35 35 36 36 36 37
26 27 27 28 28 28 28 29 29 29 30 30 30 31 31 31 31 31 30 31 31 30 31 31 32 32 32 33 33 33 33 33 33 33 34 34 35 35 36 36 36 36 37 37
27 27 28 28 28 28 28 28 28 28 29 29 30 30 30 30 31 30 31 31 30 30 31 32 32 32 32 32 33 32 33 34 34 34 34 34 34 35 35 35 36 37 38 38
27 27 28 28 28 28 28 28 28 28 29 29 29 29 30 30 30 30 30 30 30 30 31 32 32 32 32 32 32 33 33 34 34 34 34 34 34 34 34 35 35 36 37 38
27 27 28 28 28 28 28 28 28 28 28 29 29 29 30 30 30 30 30 30 30 31 31 32 32 33 33 33 33 33 33 33 32 32 33 34 34 34 34 34 34 35 35 36
27 27 28 28 28 28 28 28 28 28 29 29 30 30 30 30 30 30 30 31 31 32 32 32 32 32 32 33 33 33 33 32 32 32 32 33 33 33 34 34 34 34 35 35
28 28 28 28 28 28 28 29 29 30 30 31 31 30 30 30 30 30 31 31 32 33 33 33 33 33 33 33 33 33 33 32 32 32 32 32 33 34 34 35 35 35 35 35
29 29 29 29 29 29 29 30 30 31 31 31 31 31 31 30 31 31 31 32 32 33 34 34 34 34 34 34 33 33 33 33 32 32 32 33 33 34 34 35 35 35 35 35
30 30 31 31 31 31 30 31 31 32 32 32 32 32 32 32 32 32 32 33 34 34 34 34 34 34 34 34 34 34 34 34 33 33 34 34 34 35 34 35 35 34 35 35
30 31 31 31 31 30 30 31 31 32 32 32 32 32 32 33 33 33 33 34 34 34 34 34 34 34 34 34 34 34 34 34 34 35 35 35 35 35 35 35 35 35 35 35
29 30 30 31 31 31 32 32 33 33 33 33 32 33 33 33 33 34 34 34 34 35 35 35 35 35 35 34 35 35 35 35 35 36 36 36 36 36 37 36 36 36 36 36
29 30 31 31 32 32 33 33 33 32 32 32 32 32 33 33 33 34 34 34 34 34 35 35 35 35 35 35 35 35 36 36 36 37 37 37 37 37 37 37 37 37 37 37
Wind_Direction
278 277 276 273 270 270 271 273 275 275 273 273 272 272 273 274 275 275 275 273 268 267 269 269 271 272 273 273 272 271 270 270 271 270 271 272 273 274 276 278 278 276 274 274
277 278 278 276 274 271 272 274 275 276 275 274 274 274 274 274 274 273 273 272 273 272 271 270 271 272 272 274 273 271 271 269 270 270 271 272 273 275 276 278 277 276 276 276
277 277 277 277 277 276 275 276 276 276 277 276 274 275 275 275 274 274 272 271 271 271 271 271 271 271 272 274 274 274 273 271 270 270 270 271 272 274 274 275 276 276 276 276
279 279 279 283 280 278 277 276 277 277 277 276 277 276 277 279 278 277 276 273 271 272 273 274 273 273 272 272 273 274 273 273 272 271 270 271 271 272 273 274 274 274 274 275
279 279 281 283 283 281 279 276 276 277 278 278 278 278 278 279 280 279 278 276 273 273 274 274 275 274 273 272 273 273 274 274 273 272 271 270 271 272 272 273 274 273 273 273
280 280 282 286 284 282 282 280 279 279 280 280 280 281 281 280 279 278 277 275 275 275 275 275 275 275 275 275 275 274 275 275 274 273 271 271 271 270 271 270 271 271 272 272
280 281 282 284 283 282 281 283 283 282 281 281 281 282 282 281 281 280 277 276 275 275 276 276 275 275 275 276 277 276 276 276 276 274 271 271 270 270 271 270 270 270 271 272
279 280 282 283 282 281 281 281 282 282 282 282 282 282 281 282 283 283 282 280 276 275 275 275 274 274 274 275 276 277 278 277 276 276 274 272 271 270 270 270 271 271 271 271
280 281 281 281 280 280 280 281 281 282 282 283 284 283 283 283 284 284 284 282 279 277 276 274 274 274 274 275 276 277 278 279 278 278 275 273 272 272 271 271 272 271 271 271
280 280 281 281 280 280 280 281 283 283 283 283 283 284 284 284 283 283 283 283 282 281 278 276 275 275 274 275 276 278 279 280 279 278 276 274 273 274 273 272 272 271 270 271
279 279 280 280 280 281 282 283 284 285 285 286 286 286 286 285 286 285 283 283 284 283 281 279 278 277 276 276 276 278 279 280 279 278 277 276 275 274 273 273 272 271 271 270
277 278 278 278 279 281 282 284 286 286 286 287 287 288 287 286 286 286 286 285 285 284 281 280 279 279 278 278 277 279 279 279 279 278 278 277 276 275 274 273 273 272 272 271
277 278 278 279 280 281 282 284 285 287 287 288 288 288 288 288 288 288 287 287 285 284 283 281 281 280 279 278 278 279 279 280 279 278 278 278 277 276 276 276 276 275 274 273
278 279 280 281 282 282 283 284 285 287 288 288 288 288 288 287 288 288 288 287 286 285 285 284 283 282 281 281 280 279 279 280 280 279 278 278 277 277 277 276 276 276 275 275
278 280 281 282 283 284 285 286 287 288 287 287 288 288 288 287 287 288 287 287 287 286 286 286 286 285 283 283 281 280 279 279 280 279 278 277 277 277 277 277 276 275 275 275
279 280 281 283 284 285 286 287 288 289 288 287 287 287 287 288 288 288 287 287 287 287 287 287 287 286 285 285 284 282 282 281 280 279 276 276 277 277 277 277 277 276 275 275
282 283 283 285 286 286 287 288 290 290 289 288 287 287 287 288 288 288 288 288 287 287 287 287 287 287 287 286 286 284 283 282 281 280 279 278 277 277 277 277 278 278 278 277
282 283 285 286 287 288 288 289 289 289 288 288 287 287 287 287 287 287 287 288 287 287 287 287 288 288 288 287 286 285 283 282 281 281 281 280 279 279 278 278 278 278 278 278
282 283 285 287 289 289 289 290 290 290 289 288 288 288 288 287 286 286 287 288 288 287 287 287 287 288 288 288 287 287 287 285 283 282 280 280 280 280 280 279 279 279 279 278
282 283 284 286 287 288 289 290 290 291 291 291 291 290 289 288 286 287 288 289 289 288 289 289 289 289 289 289 288 288 288 287 285 283 282 281 281 282 282 282 282 282 282 281
283 283 284 286 287 287 288 289 290 290 291 291 292 291 290 290 289 289 289 290 289 289 290 291 291 290 290 289 290 289 288 287 286 285 285 284 283 283 283 283 284 285 284 284
283 284 284 285 286 286 287 289 290 290 290 291 291 292 292 291 291 290 290 290 290 290 291 292 291 290 289 289 289 290 290 288 287 286 285 285 285 285 285 285 285 285 285 285
282 283 283 284 285 286 287 289 290 290 291 292 292 293 293 293 292 291 290 290 290 291 292 292 292 291 290 289 289 289 289 288 288 287 286 286 287 287 287 286 286 286 285 284
281 282 282 284 286 287 287 288 288 290 291 292 292 292 292 293 292 292 291 291 291 292 291 291 291 291 291 290 289 289 289 288 288 288 287 287 287 287 287 287 286 285 285 284
282 282 283 285 287 288 288 288 289 290 290 291 291 291 291 292 292 293 293 293 293 292 292 291 291 291 292 291 291 290 289 288 288 288 288 288 287 287 287 287 286 285 284 284
281 282 284 285 286 288 289 289 290 290 291 291 291 291 291 292 292 293 293 294 294 293 292 291 291 291 291 291 291 291 290 289 289 288 287 287 287 287 287 287 288 286 284 284
281 282 284 285 286 287 288 289 290 290 290 291 291 291 292 292 293 293 294 295 295 294 293 292 291 290 290 290 290 291 291 290 289 288 287 287 286 286 286 287 287 287 285 285
Height
5802 5802 5801 5801 5801 5801 5801 5800 5801 5801 5801 5802 5802 5802 5802 5801 5801 5800 5800 5800 5800 5799 5799 5799 5798 5798 5797 5797 5796 5796 5795 5795 5795 5795 5795 5795 5794 5794 5794 5794 5793 5793 5793 5792
5797 5797 5796 5795 5796 5796 5795 5795 5795 5795 5796 5796 5796 5796 5795 5795 5795 5794 5794 5794 5793 5793 5793 5792 5792 5792 5791 5790 5790 5789 5789 5789 5788 5788 5788 5788 5788 5788 5788 5787 5787 5786 5786 5786
5792 5791 5790 5790 5791 5790 5790 5790 5790 5790 5791 5789 5789 5789 5789 5789 5788 5788 5787 5787 5786 5786 5786 5785 5785 5784 5784 5783 5783 5782 5782 5782 5781 5781 5781 5781 5781 5780 5780 5780 5780 5779 5779 5778
5786 5786 5785 5788 5785 5785 5784 5784 5784 5784 5784 5783 5783 5783 5782 5782 5782 5781 5780 5780 5779 5779 5778 5778 5777 5777 5776 5776 5775 5775 5774 5773 5773 5773 5773 5773 5772 5772 5772 5772 5771 5771 5770 5770
5781 5780 5780 5781 5780 5779 5778 5778 5778 5777 5777 5777 5776 5776 5776 5775 5774 5773 5773 5772 5771 5771 5770 5770 5769 5769 5769 5768 5767 5767 5766 5765 5764 5764 5764 5763 5763 5763 5763 5763 5762 5762 5761 5761
5775 5774 5774 5776 5774 5772 5773 5772 5772 5771 5770 5770 5769 5769 5769 5768 5767 5766 5765 5764 5763 5763 5762 5762 5761 5760 5760 5759 5758 5758 5757 5756 5756 5755 5755 5754 5754 5754 5754 5753 5753 5752 5752 5751
5769 5768 5768 5769 5768 5767 5768 5768 5766 5765 5764 5763 5762 5762 5761 5760 5759 5758 5757 5756 5755 5754 5754 5753 5752 5751 5751 5750 5749 5748 5748 5747 5746 5745 5745 5745 5744 5744 5744 5744 5743 5743 5742 5742
5763 5762 5764 5762 5761 5761 5761 5760 5759 5758 5757 5756 5755 5754 5753 5752 5751 5749 5748 5747 5746 5746 5745 5744 5743 5742 5742 5741 5740 5739 5738 5737 5737 5736 5735 5734 5734 5734 5734 5734 5734 5733 5733 5732
5757 5758 5757 5755 5755 5754 5753 5753 5752 5751 5750 5749 5748 5746 5745 5744 5743 5741 5740 5739 5737 5736 5735 5734 5734 5733 5732 5731 5730 5729 5728 5727 5726 5725 5725 5724 5724 5724 5724 5723 5723 5723 5723 5722
5750 5750 5749 5748 5747 5747 5746 5745 5744 5743 5742 5741 5740 5738 5737 5735 5734 5732 5731 5730 5728 5727 5726 5725 5724 5723 5722 5721 5720 5719 5718 5717 5716 5716 5715 5714 5714 5713 5713 5713 5713 5713 5713 5713
5743 5743 5742 5741 5740 5739 5738 5737 5736 5735 5734 5732 5731 5730 5728 5726 5724 5723 5722 5720 5718 5717 5716 5715 5714 5713 5712 5711 5710 5709 5708 5707 5706 5705 5705 5704 5704 5703 5703 5702 5702 5702 5702 5702
5736 5735 5734 5734 5732 5731 5730 5729 5728 5727 5725 5724 5722 5721 5719 5717 5715 5713 5712 5710 5709 5707 5706 5705 5703 5702 5701 5700 5699 5698 5697 5696 5695 5695 5694 5693 5693 5692 5691 5691 5691 5690 5690 5690
5727 5727 5726 5726 5725 5723 5722 5721 5720 5718 5717 5715 5713 5712 5710 5708 5706 5704 5702 5700 5699 5697 5696 5695 5694 5693 5691 5690 5689 5688 5687 5686 5685 5684 5683 5683 5682 5681 5681 5681 5680 5679 5679 5679
5719 5719 5718 5718 5717 5715 5714 5713 5711 5710 5708 5706 5704 5702 5700 5699 5697 5695 5693 5691 5689 5688 5687 5685 5684 5682 5681 5680 5678 5677 5676 5675 5674 5673 5672 5672 5671 5670 5670 5670 5669 5668 5667 5667
5711 5710 5710 5709 5708 5706 5705 5703 5702 5700 5698 5697 5695 5693 5690 5689 5687 5685 5683 5681 5680 5678 5677 5675 5674 5672 5670 5669 5667 5666 5665 5664 5663 5662 5661 5660 5660 5659 5659 5658 5658 5657 5656 5655
5703 5702 5701 5700 5699 5697 5695 5693 5692 5690 5688 5687 5685 5683 5681 5679 5677 5675 5674 5672 5670 5668 5667 5665 5664 5662 5660 5658 5657 5655 5654 5653 5652 5651 5650 5649 5648 5648 5648 5647 5646 5645 5645 5644
5695 5694 5692 5691 5690 5688 5686 5684 5683 5681 5679 5677 5675 5674 5672 5670 5668 5666 5664 5663 5661 5659 5657 5655 5654 5652 5650 5648 5646 5644 5643 5642 5640 5639 5638 5637 5637 5636 5636 5635 5634 5633 5633 5632
5686 5685 5684 5683 5681 5679 5678 5676 5674 5672 5669 5668 5666 5664 5662 5660 5658 5657 5655 5653 5651 5650 5648 5646 5644 5642 5639 5637 5635 5633 5632 5630 5629 5628 5627 5626 5625 5624 5624 5623 5622 5621 5620 5619
5678 5677 5675 5674 5672 5671 5669 5667 5665 5663 5661 5659 5657 5655 5653 5651 5649 5647 5645 5643 5641 5640 5638 5636 5634 5631 5629 5627 5625 5623 5621 5619 5617 5616 5615 5614 5613 5612 5611 5611 5610 5609 5608 5607
5670 5668 5667 5665 5664 5662 5660 5658 5656 5654 5652 5650 5648 5646 5644 5641 5640 5638 5636 5634 5632 5630 5628 5626 5623 5621 5619 5616 5614 5612 5610 5608 5606 5605 5604 5603 5601 5600 5599 5598 5597 5596 5595 5594
5661 5660 5659 5657 5655 5654 5652 5650 5648 5646 5644 5641 5639 5636 5634 5632 5630 5628 5626 5625 5623 5620 5618 5616 5613 5611 5608 5606 5604 5602 5600 5598 5596 5594 5593 5591 5590 5589 5587 5586 5586 5584 5583 5582
5653 5652 5650 5649 5647 5645 5644 5642 5640 5637 5635 5633 5630 5627 5625 5622 5620 5618 5617 5615 5612 5610 5608 5606 5603 5600 5598 5596 5593 5591 5589 5587 5585 5583 5582 5580 5579 5577 5576 5574 5573 5572 5571 5569
5644 5643 5641 5640 5639 5637 5635 5633 5631 5629 5626 5624 5621 5619 5616 5613 5611 5609 5607 5605 5602 5600 5597 5595 5592 5590 5587 5585 5583 5581 5579 5576 5574 5572 5571 5569 5567 5566 5564 5562 5561 5560 5558 5557
5635 5634 5632 5631 5630 5628 5626 5624 5622 5620 5617 5615 5612 5609 5607 5604 5602 5599 5596 5594 5592 5589 5586 5584 5581 5579 5576 5574 5572 5570 5568 5565 5563 5561 5559 5557 5556 5554 5552 5550 5548 5547 5546 5544
5626 5625 5624 5622 5621 5619 5617 5615 5613 5610 5608 5605 5602 5600 5597 5594 5592 5589 5586 5584 5581 5578 5575 5573 5570 5567 5565 5563 5560 5558 5556 5554 5552 5550 5548 5545 5544 5542 5540 5538 5536 5534 5533 5532
5617 5616 5614 5613 5611 5610 5607 5605 5603 5600 5598 5595 5593 5590 5587 5584 5581 5579 5576 5573 5570 5567 5564 5561 5559 5556 5554 5551 5549 5546 5544 5542 5539 5537 5535 5533 5531 5529 5527 5526 5524 5522 5520 5519
5608 5606 5605 5603 5602 5600 5598 5595 5593 5590 5588 5585 5583 5580 5577 5574 5571 5568 5565 5562 5559 5556 5553 5550 5547 5545 5542 5539 5537 5534 5532 5529 5527 5525 5523 5521 5519 5517 5515 5513 5511 5509 5507 5506